印度国家卫星-3DS星 (INSAT-3DS)

导读

INSAT 3DS是印度于北京时间2024年2月17日发射的新一代地球静止轨道气象卫星,属于印度INSAT系列气象卫星,旨在接替已接近寿命终点的老卫星。该卫星发射质量约2.27吨,预计运行至2030年,配备多光谱成像仪、大气探测仪器及搜救、数据中继载荷,可提供气象观测、大气参数剖面,支持天气预报、环境监测与搜救任务,将提升印度气象服务能力。

Basic Information
目录编号:
58990
目录名称:
INSAT 3DS
国际标识:
2024-033A
轨道中心:
EARTH
卫星名称:
印度国家卫星-3DS星
卫星全名:
印度国家卫星-3DS星 (INSAT-3DS)
卫星状态:
在轨 (已飞行851 天)
发射日期:
2024-02-17 UTC
国别 :
印度 (IN)
星等 :
--
Orbit Information
数据来源 国际轨道数据 AOE轨道数据
星历时间 2026-06-17T00:49:38+0800
1天前
查看轨道信息
2026-06-17T03:00:00+0800
1天前
查看轨道信息
半长轴 42164.868km 42164.896km
偏心率 0.0001001 0.000099
轨道倾角 0.043° 0.040°
近地点辐角 322.394° 323.579°
升交点赤经 112.252° 106.079°
平近点角 164.829° 202.497°
近地点 35782.51km 35782.584km
远地点 35790.952km 35790.934km
周期 1436.104分钟 1436.105分钟
每日圈数 1.002713 1.002712
Detailed Information
平衡模式:
三轴稳定
覆盖范围:
全球
运营商:
印度空间研究组织
运营商所在国:
印度
制造商(研发单位):
印度空间研究组织
制造商所在国:
印度
使用方式:
暂无
Satellite Introduction
印度先后发展了“印度卫星”(INSAT)和“地球静止卫星”(GSAT)两大静止轨道通信卫星系列,共发射卫星28颗,其中INSAT系列的前4颗向美国购买,后续卫星均由ISRO研制。在自行研制的24颗通信卫星中,有19颗发射成功,3颗发射失败,2颗发射部分失败。该卫星仍在工作。
2D Orbit Map
3D Orbit Map
Orbit Altitude Analysis Chart
Orbit Inclination Analysis Chart
Orbit Comprehensive Analysis Chart
View Comprehensive Chart